Torna al catalogo

HAKUTO-R

AttivoScienzaHEO
NORAD 62717·PAYLOAD·🇯🇵 Japan

Lanciato Jan 15, 2025 da Cape Canaveral Space Force Station

Loading…

Prossimi Passaggi (prossime 24 ore)

TLE

ObsoletoSource: Space-Track

Epoca: Jan 15, 2025, 07:37 UTC

1 62717U 25010B   25015.31796730 -.00038243  31373-4  00000-0 0  9992
2 62717  35.1700   0.1839 9650900 345.5700   0.7230  0.10673359    01

Traccia HAKUTO-R in tempo reale con AllMySat

Download on the App Store